Starlink 34660

operational
NORAD ID: 64800 Int'l Des: 2025-150 Owner: SPXS Country: US Constellation: starlink
LEOCIRCULAR

Starlink 34660について

説明を読み込み中...

リアルタイム位置

3D地球を読み込み中...

次回通過

高度履歴

Altitude vs Time

uPlot chart will show altitude changes over time

軌道要素

1 64800U 25150L 25340.35318404 .00071241 00000-0 16142-2 0 9994
2 64800 69.9999 11.0739 0002472 260.1018 99.9885 15.42732654 22501
Epoch: Dec 6, 2025 • Age: 22 hours

現在のステータス

高度 450.6 km
速度 7.65 km/s
衛星直下点 69.31°N, 61.22°W
打ち上げ日 Jul 16, 2025
運用期間 0.3 years
タイプ internet

技術仕様

分類 Payload
質量 575.00 kg
乾燥質量 530.00 kg
総質量 575.00 kg
長さ 0.30 m
直径 4.10 m
スパン 29.00 m
形状 Box + pan
製造者 SPXS
バスタイプ Starlink V2MO
フェーズステータス In Orbit
所有者/国 SPXS/US

大規模コンステレーション

Loading constellations...